When you browse on this site, cookies collect data to enhance your experience and personalize the content and advertising you see.
Visit our Privacy Policy to learn more. By continuing to use the site, you agree to this use of cookies and data.
EN

Hourly Weather Platerow

Today, 2 July, Thursday

Time Temperature Precipitation Wind Pressure Humidity
00:00 +19°C° 0.3 mm 3 mps 743 mmHg 90%
01:00 +18°C° 0.3 mm 3 mps 743 mmHg 92%
02:00 +18°C° 0 mm 3 mps 743 mmHg 94%
03:00 +18°C° 0.5 mm 3 mps 743 mmHg 94%
04:00 +18°C° 0.5 mm 3 mps 743 mmHg 95%
05:00 +18°C° 0.5 mm 3 mps 742 mmHg 95%
06:00 +20°C° 0.3 mm 3 mps 743 mmHg 92%
07:00 +21°C° 0.3 mm 3 mps 743 mmHg 89%
08:00 +23°C° 0.3 mm 4 mps 743 mmHg 85%
09:00 +25°C° 0.7 mm 4 mps 743 mmHg 81%
10:00 +26°C° 0.7 mm 5 mps 743 mmHg 77%
11:00 +27°C° 0.7 mm 6 mps 743 mmHg 73%
12:00 +27°C° 0.7 mm 6 mps 743 mmHg 73%
13:00 +27°C° 0.7 mm 5 mps 744 mmHg 72%
14:00 +27°C° 0.7 mm 5 mps 744 mmHg 72%
15:00 +27°C° 0.8 mm 4 mps 744 mmHg 72%
16:00 +27°C° 0.8 mm 4 mps 744 mmHg 73%
17:00 +27°C° 0.8 mm 3 mps 744 mmHg 73%
18:00 +26°C° 0.5 mm 2 mps 744 mmHg 76%
19:00 +24°C° 0.5 mm 2 mps 744 mmHg 79%
20:00 +23°C° 0.5 mm 1 mps 744 mmHg 82%
21:00 +22°C° 0 mm 1 mps 744 mmHg 84%
22:00 +21°C° 0 mm 1 mps 744 mmHg 86%
23:00 +20°C° 0 mm 1 mps 744 mmHg 87%

Tomorrow, 3 July, Friday

Time Temperature Precipitation Wind Pressure Humidity
00:00 +20°C° 0 mm 1 mps 744 mmHg 88%
01:00 +20°C° 0 mm 1 mps 744 mmHg 88%
02:00 +19°C° 0 mm 1 mps 744 mmHg 89%
03:00 +19°C° 0 mm 1 mps 744 mmHg 90%
04:00 +19°C° 0 mm 1 mps 744 mmHg 91%
05:00 +19°C° 0 mm 1 mps 744 mmHg 92%
06:00 +20°C° 0 mm 1 mps 744 mmHg 89%
07:00 +21°C° 0 mm 2 mps 744 mmHg 87%
08:00 +23°C° 0 mm 2 mps 744 mmHg 84%
09:00 +24°C° 1.3 mm 2 mps 744 mmHg 82%
10:00 +25°C° 1.3 mm 2 mps 744 mmHg 79%
11:00 +25°C° 1.3 mm 2 mps 744 mmHg 76%
12:00 +24°C° 0.8 mm 2 mps 744 mmHg 81%
13:00 +22°C° 0.8 mm 3 mps 744 mmHg 86%
14:00 +20°C° 0.8 mm 3 mps 744 mmHg 91%
15:00 +21°C° 0 mm 2 mps 744 mmHg 90%
16:00 +21°C° 0 mm 2 mps 744 mmHg 89%
17:00 +22°C° 0 mm 1 mps 744 mmHg 87%
18:00 +21°C° 0.1 mm 2 mps 745 mmHg 88%
19:00 +21°C° 0.1 mm 2 mps 745 mmHg 89%
20:00 +20°C° 0.1 mm 2 mps 745 mmHg 90%
21:00 +19°C° 0 mm 2 mps 746 mmHg 92%
22:00 +18°C° 0 mm 3 mps 746 mmHg 93%
23:00 +17°C° 0 mm 3 mps 746 mmHg 95%

Day after tomorrow, 4 July, Saturday

Time Temperature Precipitation Wind Pressure Humidity
00:00 +17°C° 0 mm 3 mps 747 mmHg 95%
01:00 +16°C° 0 mm 3 mps 747 mmHg 96%
02:00 +16°C° 0 mm 3 mps 747 mmHg 97%
03:00 +15°C° 0 mm 2 mps 747 mmHg 97%
04:00 +15°C° 0 mm 2 mps 748 mmHg 96%
05:00 +14°C° 0 mm 2 mps 748 mmHg 96%
06:00 +16°C° 0 mm 2 mps 748 mmHg 92%
07:00 +17°C° 0 mm 2 mps 749 mmHg 88%
08:00 +19°C° 0 mm 2 mps 749 mmHg 84%
09:00 +20°C° 0 mm 2 mps 749 mmHg 78%
10:00 +21°C° 0 mm 2 mps 749 mmHg 72%
11:00 +23°C° 0 mm 2 mps 749 mmHg 67%
12:00 +23°C° 0 mm 2 mps 749 mmHg 64%
13:00 +24°C° 0 mm 2 mps 749 mmHg 61%
14:00 +25°C° 0 mm 2 mps 749 mmHg 58%
15:00 +25°C° 0 mm 2 mps 749 mmHg 59%
16:00 +25°C° 0 mm 1 mps 749 mmHg 59%
17:00 +25°C° 0 mm 1 mps 748 mmHg 60%
18:00 +24°C° 0 mm 1 mps 748 mmHg 65%
19:00 +23°C° 0 mm 1 mps 748 mmHg 70%
20:00 +22°C° 0 mm 1 mps 748 mmHg 75%
21:00 +21°C° 0 mm 1 mps 748 mmHg 76%
22:00 +19°C° 0 mm 2 mps 749 mmHg 77%
23:00 +18°C° 0 mm 2 mps 749 mmHg 78%

5 July, Sunday

Time Temperature Precipitation Wind Pressure Humidity
00:00 +18°C° 0 mm 2 mps 749 mmHg 80%
01:00 +17°C° 0 mm 2 mps 749 mmHg 82%
02:00 +17°C° 0 mm 2 mps 748 mmHg 83%
03:00 +16°C° 0 mm 2 mps 748 mmHg 85%
04:00 +16°C° 0 mm 2 mps 748 mmHg 86%
05:00 +16°C° 0 mm 2 mps 748 mmHg 87%
06:00 +18°C° 0 mm 3 mps 748 mmHg 84%
07:00 +19°C° 0 mm 3 mps 748 mmHg 81%
08:00 +21°C° 0 mm 3 mps 748 mmHg 79%
09:00 +22°C° 0.1 mm 3 mps 748 mmHg 74%
10:00 +23°C° 0.1 mm 4 mps 748 mmHg 70%
11:00 +25°C° 0.1 mm 4 mps 748 mmHg 66%
12:00 +25°C° 0.2 mm 4 mps 748 mmHg 67%
13:00 +26°C° 0.2 mm 4 mps 747 mmHg 67%
14:00 +26°C° 0.2 mm 4 mps 747 mmHg 68%
15:00 +26°C° 0.2 mm 4 mps 747 mmHg 68%
16:00 +26°C° 0.2 mm 4 mps 746 mmHg 69%
17:00 +26°C° 0.2 mm 4 mps 746 mmHg 70%
18:00 +25°C° 0.1 mm 4 mps 746 mmHg 74%
19:00 +24°C° 0.1 mm 3 mps 746 mmHg 79%
20:00 +22°C° 0.1 mm 3 mps 746 mmHg 84%
21:00 +21°C° 0 mm 3 mps 746 mmHg 85%
22:00 +20°C° 0 mm 3 mps 746 mmHg 87%
23:00 +20°C° 0 mm 3 mps 746 mmHg 89%

6 July, Monday

Time Temperature Precipitation Wind Pressure Humidity
00:00 +19°C° 0 mm 3 mps 746 mmHg 89%
01:00 +19°C° 0 mm 4 mps 745 mmHg 90%
02:00 +19°C° 0 mm 4 mps 745 mmHg 91%
03:00 +19°C° 0 mm 4 mps 745 mmHg 92%
04:00 +18°C° 0 mm 3 mps 745 mmHg 93%
05:00 +18°C° 0 mm 3 mps 745 mmHg 94%
06:00 +19°C° 0 mm 4 mps 745 mmHg 91%
07:00 +20°C° 0 mm 4 mps 745 mmHg 87%
08:00 +21°C° 0 mm 4 mps 745 mmHg 84%
09:00 +22°C° 0 mm 5 mps 745 mmHg 81%
10:00 +23°C° 0 mm 5 mps 745 mmHg 77%
11:00 +25°C° 0 mm 5 mps 745 mmHg 74%
12:00 +26°C° 0.4 mm 5 mps 745 mmHg 74%
13:00 +26°C° 0.4 mm 5 mps 745 mmHg 74%
14:00 +26°C° 0.4 mm 5 mps 744 mmHg 74%
15:00 +26°C° 0.3 mm 4 mps 744 mmHg 76%
16:00 +26°C° 0.3 mm 4 mps 744 mmHg 78%
17:00 +25°C° 0.3 mm 3 mps 744 mmHg 80%
18:00 +25°C° 0.1 mm 3 mps 744 mmHg 82%
19:00 +24°C° 0.1 mm 2 mps 744 mmHg 83%
20:00 +23°C° 0.1 mm 2 mps 744 mmHg 85%
21:00 +23°C° 0 mm 2 mps 744 mmHg 85%
22:00 +21°C° 0 mm 2 mps 744 mmHg 85%
23:00 +21°C° 0 mm 2 mps 744 mmHg 86%

7 July, Tuesday

Time Temperature Precipitation Wind Pressure Humidity
00:00 +20°C° 0 mm 2 mps 744 mmHg 87%
01:00 +19°C° 0 mm 2 mps 744 mmHg 88%
02:00 +19°C° 0 mm 3 mps 744 mmHg 90%
03:00 +18°C° 0 mm 3 mps 745 mmHg 90%
04:00 +18°C° 0 mm 3 mps 745 mmHg 90%
05:00 +18°C° 0 mm 2 mps 745 mmHg 90%
06:00 +18°C° 0 mm 3 mps 746 mmHg 88%
07:00 +19°C° 0 mm 3 mps 746 mmHg 85%
08:00 +19°C° 0 mm 3 mps 746 mmHg 83%
09:00 +20°C° 0 mm 4 mps 747 mmHg 78%
10:00 +20°C° 0 mm 4 mps 747 mmHg 72%
11:00 +21°C° 0 mm 5 mps 747 mmHg 67%
12:00 +21°C° 0 mm 4 mps 747 mmHg 64%
13:00 +21°C° 0 mm 4 mps 747 mmHg 61%
14:00 +21°C° 0 mm 4 mps 747 mmHg 58%
15:00 +21°C° 0 mm 4 mps 747 mmHg 59%
16:00 +21°C° 0 mm 4 mps 747 mmHg 59%
17:00 +21°C° 0 mm 4 mps 747 mmHg 60%
18:00 +20°C° 0 mm 3 mps 747 mmHg 65%
19:00 +19°C° 0 mm 3 mps 747 mmHg 70%
20:00 +18°C° 0 mm 3 mps 748 mmHg 76%
21:00 +17°C° 0 mm 2 mps 748 mmHg 76%
22:00 +16°C° 0 mm 2 mps 748 mmHg 76%
23:00 +15°C° 0 mm 2 mps 748 mmHg 76%
Show more